Wind_Speed
12 12 12 12 12 15 15 17 19 19 18 18 20 21 22 22 20 15 14 11 11 9 8 5 5 6 8 12 11 10 12 14 17 16 15 12 5 13 6 11 14 9 12 14 19
13 14 14 13 14 14 17 16 17 18 18 17 20 19 21 23 22 13 8 8 8 5 4 7 7 8 13 10 9 12 12 20 14 15 12 15 15 15 15 15 15 15 16 13 15
16 15 14 15 14 16 17 18 16 17 18 19 19 18 19 20 16 2 3 5 5 6 2 7 8 9 14 13 14 14 16 20 18 11 16 18 18 18 18 17 19 17 15 16 14
18 18 16 16 17 16 18 17 16 17 17 19 18 19 20 13 7 5 4 2 1 2 3 4 7 11 12 14 15 17 19 18 21 17 15 14 18 18 21 21 21 17 16 14 14
22 21 19 18 19 17 18 17 17 17 17 19 17 17 19 9 11 15 14 9 6 4 7 8 10 12 15 13 12 14 17 21 17 18 18 18 19 20 24 24 21 19 12 11 11
23 23 22 21 20 19 16 17 19 18 17 19 19 15 9 10 7 12 5 6 7 7 8 9 11 11 14 18 16 18 15 18 18 19 19 19 21 23 24 14 11 10 10 9 10
20 21 23 24 22 22 19 16 18 18 19 20 19 16 11 15 7 8 9 8 9 10 10 8 8 10 7 12 11 13 18 18 20 20 16 7 16 23 21 15 11 11 12 10 13
23 23 25 22 24 23 19 18 17 18 20 19 16 9 10 11 10 12 11 11 11 11 11 7 8 11 14 14 14 18 19 18 16 4 10 7 15 17 5 9 13 13 16 17 17
26 20 23 22 24 21 20 17 17 17 18 17 10 7 11 6 3 3 8 12 11 11 11 10 11 16 13 11 15 16 17 19 14 14 7 11 15 10 8 13 17 21 22 20 18
23 21 20 20 20 20 19 17 16 16 12 7 8 8 8 3 4 5 6 10 10 12 12 14 12 13 13 12 15 18 17 16 12 11 13 16 21 19 24 25 17 23 22 19 18
28 22 22 19 17 15 15 11 5 5 11 12 10 15 10 5 4 5 6 8 13 16 16 17 14 15 17 17 17 16 18 21 21 17 20 19 22 21 21 27 27 25 24 18 7
24 23 23 21 15 14 13 7 7 6 12 19 23 23 21 11 9 12 10 11 16 16 18 15 17 17 18 14 13 16 20 22 22 20 11 19 24 23 24 29 26 13 5 7 11
19 25 23 21 16 19 15 11 9 5 9 18 23 22 18 18 17 18 17 18 17 16 18 20 16 7 7 15 15 17 19 20 21 19 21 22 30 23 15 5 9 6 3 6 11
18 21 22 18 19 19 16 10 6 1 5 13 8 7 11 10 9 21 16 18 15 18 16 18 18 16 19 16 15 20 14 17 14 15 17 20 21 26 22 24 12 8 5 9 14
21 25 21 20 19 19 10 12 8 3 6 6 8 8 9 14 8 9 11 16 20 18 11 17 11 11 15 17 14 16 12 10 16 18 20 30 14 26 19 13 14 6 9 13 16
24 24 22 25 26 16 12 16 14 3 11 7 8 9 12 15 8 7 10 10 7 13 14 16 3 8 12 11 8 12 11 16 18 17 17 25 21 22 5 9 7 7 11 15 20
24 24 24 26 30 21 19 22 3 7 3 8 7 11 14 8 10 10 11 13 9 10 14 18 17 13 5 14 12 11 13 11 13 12 16 20 12 8 9 10 11 13 19 21 21
24 25 27 31 30 28 29 3 8 11 22 2 3 10 15 9 10 10 9 13 10 10 9 10 12 15 11 14 15 15 14 12 19 15 17 21 9 4 11 11 12 12 14 17 21
29 42 37 35 30 33 23 5 8 16 15 8 9 12 13 8 5 11 15 14 12 12 8 8 12 3 3 8 6 7 14 12 17 18 16 17 20 12 9 11 14 15 16 19 21
44 38 32 33 37 41 3 8 13 10 6 14 17 15 15 16 11 9 10 5 8 5 3 4 8 11 8 6 14 14 10 6 7 6 12 11 14 3 9 11 13 14 17 20 22
32 15 25 46 42 15 5 12 14 11 13 12 16 14 14 11 14 14 6 6 5 9 7 7 7 6 4 10 15 12 12 13 13 11 9 10 2 4 6 8 11 15 20 20 22
26 4 40 47 9 5 12 11 11 13 14 8 8 12 10 10 11 12 10 6 9 6 6 9 5 11 16 11 9 14 16 15 11 13 7 13 7 5 5 6 11 15 17 18 21
18 9 40 32 7 14 13 17 11 14 17 12 10 9 7 10 8 10 4 5 6 10 6 6 7 7 8 7 10 9 14 14 9 9 15 9 2 5 6 9 12 14 16 19 22
13 5 9 17 13 14 20 16 17 19 14 13 10 9 10 8 9 5 8 6 9 13 3 2 8 9 11 10 5 5 7 9 12 11 14 12 2 5 7 8 11 14 16 18 21
12 7 18 11 13 13 17 15 21 12 15 17 10 16 13 11 13 11 9 8 7 10 7 8 10 10 15 16 15 13 12 12 11 15 10 7 2 4 6 7 10 12 15 19 22
16 9 24 14 28 19 19 16 23 19 17 20 12 14 12 14 11 7 13 11 8 12 13 12 7 7 11 16 15 15 15 13 9 8 5 2 4 5 7 7 10 13 16 19 21
31 25 27 19 22 17 19 20 23 17 15 18 14 12 13 12 7 4 8 14 6 9 13 10 5 6 7 3 4 7 9 8 3 3 5 9 8 8 7 9 11 12 15 17 19
Wind_Direction
278 286 297 305 315 324 326 330 329 328 328 333 334 334 333 330 329 330 302 270 264 275 237 225 224 228 226 237 239 261 267 258 261 272 270 278 278 281 283 278 282 255 264 278 298
272 281 292 294 308 314 321 329 329 322 322 326 331 332 334 331 329 310 270 297 267 240 180 217 231 227 236 244 227 231 249 264 287 323 305 308 289 282 287 272 271 271 266 281 292
267 275 286 294 302 309 313 318 325 320 319 322 331 333 335 338 329 111 343 18 77 127 214 238 260 243 247 237 233 256 251 284 290 294 284 286 280 276 282 275 274 289 298 286 291
264 271 276 288 295 297 305 314 316 319 319 324 330 333 336 346 336 289 311 323 70 95 206 221 236 243 257 256 246 248 265 267 287 286 286 279 287 286 280 283 283 283 282 288 279
261 263 268 272 284 290 304 308 309 313 316 320 323 331 337 311 295 273 291 267 248 232 242 245 258 261 267 273 274 262 262 277 274 274 269 279 274 275 277 276 275 277 280 269 285
258 260 263 267 274 280 297 302 304 306 317 320 318 324 323 290 280 274 264 245 233 247 250 244 254 273 283 276 277 281 296 284 280 269 274 272 275 278 265 269 275 256 260 270 285
259 259 256 262 265 272 280 284 294 301 312 316 312 313 285 267 275 269 272 249 249 241 248 243 252 252 290 276 291 275 279 273 265 256 260 276 269 252 250 243 245 255 259 277 287
261 264 258 261 263 269 283 289 291 295 305 311 303 295 261 279 264 261 258 254 241 236 234 239 240 259 267 267 269 260 264 271 272 46 253 231 278 300 154 237 247 273 288 285 286
258 269 270 267 267 270 278 283 289 298 305 309 301 250 284 263 292 273 234 232 232 232 235 231 238 245 250 250 262 244 257 275 277 179 252 252 282 304 279 248 267 274 281 279 291
250 263 261 266 268 270 273 282 292 298 304 302 265 253 251 266 231 243 246 219 218 221 231 230 230 235 224 241 257 278 289 287 257 263 226 247 272 277 273 268 267 265 271 277 279
254 252 259 255 257 263 271 283 287 250 212 229 284 251 279 265 241 239 211 203 215 227 229 214 234 240 245 259 264 278 282 277 280 282 280 277 278 276 280 270 263 259 257 262 312
247 242 247 252 259 256 249 229 252 281 292 256 256 255 254 252 263 231 209 212 208 230 223 244 234 259 272 276 280 277 273 272 276 275 282 277 275 282 279 267 273 297 278 2 321
246 243 240 248 252 239 243 233 254 290 269 280 247 250 247 234 239 238 204 223 241 240 250 254 258 309 293 276 255 255 265 276 284 305 291 282 270 266 284 243 199 111 6 326 326
243 234 238 231 231 231 225 230 223 93 289 262 201 246 194 206 245 225 227 226 235 249 262 265 273 282 266 249 264 274 280 292 298 279 282 302 291 288 281 263 166 145 7 345 334
236 237 235 228 227 205 211 205 161 112 278 89 135 152 160 190 118 183 209 228 244 242 225 253 249 240 257 265 265 273 293 283 287 286 290 277 275 281 274 226 135 70 360 342 334
233 234 218 230 217 215 198 158 131 181 241 165 146 178 176 202 199 140 191 221 250 257 247 252 296 278 269 286 262 278 282 267 266 264 262 274 268 269 349 42 64 16 357 350 340
234 227 223 223 216 202 172 134 179 219 88 177 187 180 199 184 187 206 194 208 223 218 232 236 235 233 244 258 239 235 266 274 269 246 255 265 256 299 79 58 37 10 357 347 339
235 224 217 216 214 195 162 131 216 230 227 90 192 190 210 181 217 209 225 239 212 264 277 270 269 228 181 244 272 279 241 257 283 291 297 310 270 95 91 78 48 15 351 341 338
219 191 205 209 202 181 142 208 222 243 254 174 193 207 205 188 270 213 229 245 248 193 248 298 254 115 221 251 233 272 242 267 285 280 269 264 263 124 66 43 17 3 356 347 341
197 191 191 192 176 164 223 219 223 228 255 180 209 209 228 197 205 204 198 213 218 226 211 268 267 262 258 233 251 253 285 266 217 262 252 252 252 87 26 360 359 356 359 352 345
187 158 181 164 160 170 216 217 225 193 216 217 230 246 234 229 198 222 250 122 198 172 218 263 239 267 215 231 253 217 234 244 265 265 279 294 60 44 27 8 358 353 358 357 349
164 131 164 164 145 210 222 213 227 197 208 212 261 236 226 211 207 237 233 233 166 183 215 219 277 261 263 267 255 268 270 210 229 251 300 280 284 46 44 19 19 8 351 356 357
140 121 164 176 175 203 220 216 220 205 196 207 212 212 226 209 227 221 206 79 184 205 231 163 232 263 233 211 229 248 237 258 244 275 273 289 312 81 44 40 27 14 2 4 2
138 127 172 214 243 231 205 202 201 213 207 210 202 187 200 197 211 229 219 165 198 221 74 272 252 264 271 317 314 242 197 241 251 256 273 271 101 74 45 35 26 16 5 6 7
164 168 181 192 214 225 196 198 200 192 212 188 188 207 203 212 228 223 219 163 203 211 208 228 260 258 274 279 276 273 264 248 252 260 268 324 9 83 62 36 32 15 8 12 7
170 168 173 204 192 210 194 204 197 186 193 194 209 199 205 232 235 222 220 185 201 198 215 195 246 324 285 267 254 255 252 247 250 232 273 228 145 111 95 68 38 23 15 16 6
203 190 175 155 179 191 198 201 200 168 194 191 201 212 218 227 236 245 214 208 220 187 201 213 231 235 257 323 279 251 188 209 158 173 275 229 114 138 113 73 41 27 24 18 10
Height
1533 1533 1532 1531 1531 1530 1528 1527 1527 1525 1522 1520 1518 1515 1512 1509 1508 1506 1506 1506 1503 1502 1502 1505 1506 1506 1506 1503 1504 1503 1500 1486 1477 1474 1471 1474 1479 1483 1481 1485 1483 1482 1485 1485 1483
1530 1531 1530 1529 1529 1528 1527 1525 1525 1524 1521 1519 1518 1514 1511 1508 1505 1504 1504 1502 1500 1500 1502 1506 1506 1505 1503 1501 1500 1499 1490 1483 1476 1479 1478 1479 1480 1481 1481 1480 1481 1480 1481 1483 1484
1528 1528 1527 1528 1526 1527 1526 1525 1523 1522 1519 1518 1515 1513 1510 1508 1505 1503 1502 1502 1500 1500 1504 1506 1507 1505 1501 1498 1496 1495 1491 1485 1482 1483 1487 1485 1483 1483 1481 1479 1479 1478 1479 1482 1483
1525 1525 1525 1525 1524 1523 1523 1523 1521 1519 1518 1516 1513 1511 1509 1507 1507 1506 1503 1502 1502 1502 1504 1504 1504 1504 1499 1493 1492 1489 1489 1488 1487 1487 1487 1485 1484 1483 1481 1480 1480 1479 1480 1481 1482
1521 1521 1521 1521 1521 1520 1521 1520 1519 1517 1516 1514 1512 1510 1510 1511 1508 1502 1503 1502 1503 1503 1504 1503 1503 1501 1495 1490 1490 1489 1488 1486 1487 1489 1487 1486 1485 1482 1479 1478 1476 1476 1478 1479 1479
1516 1517 1517 1518 1518 1517 1517 1518 1518 1515 1514 1512 1511 1509 1509 1507 1503 1503 1502 1502 1503 1503 1503 1502 1501 1499 1496 1494 1491 1488 1489 1486 1484 1485 1485 1484 1481 1479 1474 1473 1475 1476 1475 1476 1476
1510 1511 1512 1513 1513 1515 1514 1514 1515 1512 1511 1510 1509 1507 1506 1501 1498 1502 1499 1502 1503 1503 1502 1500 1501 1501 1493 1491 1489 1491 1489 1482 1479 1476 1478 1479 1478 1469 1467 1469 1472 1473 1472 1472 1472
1505 1507 1507 1508 1508 1510 1510 1511 1511 1510 1508 1507 1508 1506 1500 1495 1494 1495 1498 1499 1500 1501 1501 1500 1500 1498 1495 1492 1491 1488 1482 1476 1462 1472 1477 1483 1471 1460 1464 1469 1468 1468 1469 1469 1469
1501 1501 1502 1504 1504 1506 1507 1507 1508 1507 1505 1504 1505 1507 1496 1491 1491 1493 1495 1497 1496 1500 1501 1498 1499 1495 1491 1489 1481 1473 1473 1466 1458 1465 1473 1474 1466 1462 1465 1467 1467 1467 1467 1465 1465
1494 1497 1498 1500 1501 1503 1503 1504 1504 1502 1501 1502 1504 1508 1495 1492 1491 1491 1493 1494 1494 1497 1500 1498 1494 1488 1483 1480 1475 1464 1457 1452 1459 1458 1460 1465 1462 1460 1460 1457 1460 1462 1460 1461 1461
1487 1492 1494 1496 1497 1497 1501 1502 1506 1502 1499 1496 1493 1490 1490 1490 1489 1489 1489 1492 1493 1493 1490 1487 1486 1478 1469 1466 1464 1466 1470 1468 1459 1457 1459 1459 1459 1454 1453 1451 1449 1449 1452 1453 1457
1482 1485 1488 1493 1495 1495 1497 1498 1503 1500 1492 1490 1487 1486 1487 1488 1488 1486 1488 1489 1489 1485 1483 1481 1478 1474 1469 1466 1470 1474 1472 1465 1457 1455 1458 1461 1454 1449 1447 1442 1441 1442 1446 1454 1462
1476 1481 1481 1489 1492 1492 1494 1495 1498 1499 1495 1480 1478 1478 1481 1486 1481 1479 1483 1483 1480 1481 1477 1472 1466 1469 1473 1471 1472 1471 1470 1466 1463 1459 1457 1455 1442 1435 1427 1435 1441 1451 1458 1461 1464
1472 1474 1479 1482 1490 1490 1490 1493 1495 1500 1495 1468 1472 1471 1474 1479 1476 1475 1478 1483 1478 1477 1475 1468 1466 1470 1469 1472 1472 1467 1463 1463 1465 1468 1461 1451 1440 1432 1431 1424 1436 1450 1461 1463 1465
1467 1469 1472 1478 1479 1486 1486 1491 1496 1499 1492 1458 1470 1470 1471 1473 1472 1474 1479 1481 1476 1471 1477 1467 1465 1471 1471 1467 1467 1467 1467 1471 1469 1468 1466 1445 1451 1421 1420 1418 1431 1454 1462 1465 1465
1460 1463 1469 1474 1476 1480 1484 1489 1495 1501 1480 1457 1462 1466 1469 1468 1469 1474 1478 1478 1474 1472 1467 1467 1467 1469 1465 1466 1471 1472 1472 1471 1469 1467 1465 1441 1437 1418 1423 1447 1452 1461 1464 1463 1463
1454 1458 1464 1467 1472 1476 1483 1489 1498 1478 1454 1451 1457 1461 1461 1465 1467 1470 1471 1472 1467 1473 1467 1461 1461 1466 1471 1471 1469 1474 1474 1467 1460 1451 1443 1424 1422 1426 1441 1453 1459 1458 1459 1463 1464
1449 1453 1458 1462 1468 1471 1476 1490 1480 1444 1446 1452 1455 1458 1459 1459 1464 1467 1465 1464 1464 1467 1465 1466 1467 1457 1461 1468 1464 1461 1464 1464 1459 1449 1436 1420 1429 1423 1448 1455 1460 1466 1469 1470 1467
1444 1443 1450 1456 1462 1468 1473 1477 1451 1445 1441 1451 1456 1456 1455 1458 1465 1465 1465 1461 1458 1461 1468 1464 1458 1461 1468 1468 1471 1463 1464 1464 1465 1460 1455 1439 1425 1436 1452 1459 1466 1471 1471 1471 1469
1436 1443 1445 1452 1458 1465 1469 1458 1446 1445 1443 1445 1449 1446 1445 1452 1465 1460 1458 1459 1462 1469 1471 1470 1473 1459 1464 1470 1471 1472 1465 1470 1469 1470 1450 1422 1412 1440 1470 1472 1472 1472 1471 1471 1469
1434 1442 1445 1449 1457 1468 1456 1440 1442 1444 1448 1446 1442 1441 1443 1442 1452 1453 1458 1463 1468 1470 1474 1471 1474 1464 1468 1466 1465 1460 1468 1469 1462 1458 1447 1436 1441 1474 1479 1479 1477 1475 1472 1471 1469
1429 1438 1446 1448 1455 1460 1447 1441 1442 1440 1447 1448 1447 1439 1445 1445 1453 1455 1458 1461 1469 1469 1475 1473 1473 1467 1458 1455 1457 1457 1453 1456 1464 1455 1449 1439 1438 1477 1481 1479 1478 1478 1478 1474 1470
1423 1436 1444 1447 1439 1440 1438 1437 1439 1440 1443 1446 1445 1445 1449 1448 1457 1455 1462 1467 1472 1474 1473 1473 1471 1471 1455 1458 1459 1458 1454 1452 1455 1460 1455 1456 1447 1478 1481 1481 1481 1481 1479 1475 1470
1420 1432 1444 1441 1436 1427 1430 1431 1435 1439 1440 1442 1442 1449 1454 1453 1456 1457 1459 1470 1473 1474 1477 1478 1476 1470 1452 1467 1456 1458 1454 1455 1455 1458 1446 1442 1461 1478 1482 1483 1483 1483 1481 1477 1472
1408 1415 1416 1427 1431 1429 1428 1425 1430 1434 1438 1441 1445 1448 1449 1451 1451 1456 1460 1468 1476 1477 1477 1479 1475 1470 1465 1463 1458 1456 1455 1455 1461 1457 1461 1455 1466 1481 1484 1486 1486 1485 1483 1478 1474
1395 1400 1410 1406 1424 1429 1425 1421 1425 1430 1434 1438 1441 1446 1448 1449 1448 1453 1458 1465 1471 1471 1474 1473 1476 1474 1470 1456 1453 1454 1454 1455 1463 1466 1470 1470 1476 1484 1486 1487 1487 1486 1484 1480 1477
1386 1390 1401 1398 1412 1418 1412 1417 1419 1427 1436 1439 1443 1444 1445 1447 1451 1455 1455 1461 1462 1465 1468 1472 1475 1472 1455 1447 1452 1454 1458 1461 1466 1468 1468 1464 1474 1483 1486 1489 1490 1488 1486 1483 1481